LOWILSZA

Guest
Details From LOWI - Innsbruck Kranebitten
To LSZA - Lugano
Flight Number -
Tags generated
Created
Modified
Stats Distance 126 nm / 233 km
Max Altitude 8,000 ft / 2,438 m
Waypoints 3
Social Downloads 1
Likes 0
Share VATSIM

Download

Looking for another format? Having issues loading an existing format? Contact us
Advertisement - Login to hide

Notes

Basic altitude profile: - Ascent Rate: 2500ft/min - Ascent Speed: 250kts - Cruise Altitude: 180ft - Cruise Speed: 300kts - Descent Rate: 1500ft/min - Descent Speed: 250kts Options: - Use NATs: yes - Use PACOTS: yes - Use low airways: yes - Use high airways: yes

Route

LOWI OTSIS LSZA

ID Type Via Altitude (ft/m) Position (lat/lon) Dist (leg/tot) Name
O LOWI APT - 0 / 0 47.26023 / 11.34397 - / 0 nm Innsbruck Kranebitten
OTSIS FIX - 8,000 / 2,438 47.10074 / 10.84546 22 / 22 nm
O LSZA APT - 0 / 0 46.00428 / 8.91058 103 / 126 nm Lugano

Altitude Profile

Advertisement - Login to hide

LOWI

Details ICAO LOWI (INN)
Name Innsbruck
Region Austria
Timezone Europe/Vienna (UTC+2.0)
Stats Elevation 1,905 ft / 581 m (AMSL)
Location 47.260200° 11.344000°
Runways 1
Magnetic Variation 3.190° E

METAR

LOWI 201850Z VRB01KT 9999 -RA FEW005 BKN017 BKN050 10/09 Q1006 NOSIG

Decode

TAF

TAF LOWI 201715Z 2018/2118 VRB02KT 8000 RA SCT010 SCT020 BKN040 TX12/2112Z TN09/2104Z TEMPO 2020/2106 5000 +RA SCT005 BKN015 TEMPO 2108/2118 27008KT 9999 -RA SCT030 BKN050

Decode

Departure Runways

ID Width Length Bearing (true/mag) Surface Threshold Overrun Markings Lighting
08 148 ft / 45 m 6,545 ft / 1,995 m 80.93° / 77.74° ASPHALT 338 ft / 103 m 0 ft / 0 m PREC-APP CENTERLINE EDGE THRESHOLD REIL-OMNI
26 148 ft / 45 m 6,545 ft / 1,995 m 260.95° / 257.76° ASPHALT 0 ft / 0 m 0 ft / 0 m PREC-APP CENTERLINE EDGE THRESHOLD MALS REIL-OMNI

LSZA

Details ICAO LSZA (LUG)
Name Lugano
Region Switzerland
Timezone Europe/Zurich (UTC+2.0)
Stats Elevation 915 ft / 279 m (AMSL)
Location 46.004300° 8.910580°
Runways 1
Magnetic Variation 2.592° E

METAR

LSZA 201920Z VRB01KT 9999 FEW025 SCT030 BKN042 15/12 Q1006 NOSIG

Decode

TAF

Not found

Destination Runways

ID Width Length Bearing (true/mag) Surface Threshold Overrun Markings Lighting
01 98 ft / 30 m 4,415 ft / 1,346 m 18.79° / 16.19° CONCRETE 358 ft / 109 m 16 ft / 5 m PREC-APP CENTERLINE EDGE THRESHOLD SALS REIL-UNI
19 98 ft / 30 m 4,415 ft / 1,346 m 198.79° / 196.20° CONCRETE 673 ft / 205 m 0 ft / 0 m APP CENTERLINE EDGE THRESHOLD SALS REIL-UNI

Approach Navaids

Runway Type Ident Frequency Range Bearing (true/mag) Slope Elevation
01 LOC-ILS ILU 111.50 MHz 18 nm / 33 km 18.79° / 16.20 ° - 928 ft / 283 m (AMSL)
01 GS ILU 111.50 MHz 10 nm / 19 km 20.98° / 18.39 ° 6.00° 928 ft / 283 m (AMSL)
01 DME ILU 111.50 MHz 18 nm / 33 km - - 928 ft / 283 m (AMSL)

Popular Alternatives